Location: Unspecified
(0.0000°N, 0.0000°E)
Time: 03:58:13
(UTC+00:00)

Envisat - Pass Details

Date: 23 May 2019
Orbit: 764 x 766 km, 98.1° (Epoch: 26 June)

Event Time Altitude Azimuth Distance (km) Brightness Sun altitude
Rises 18:24:31 0° 154° (SSE) 3,231 5.8 -6.5°
Reaches altitude 10° 18:26:57 10° 146° (SE) 2,302 5.0 -7.1°
Maximum altitude 18:31:40 39° 78° (ENE) 1,134 3.5 -8.2°
Drops below altitude 10° 18:36:21 10° 10° (N) 2,293 5.6 -9.3°
Sets 18:38:46 0° 2° (N) 3,216 6.5 -9.8°
